Location: Béaulencourt
(50.0796°N, 2.8795°E)
Time: 00:19:22
(UTC+00:00)

CZ-4C R/B - Pass Details

Date: 20 January 2026
Orbit: 482 x 1496 km, 63.4° (Epoch: 17 February)

Event Time Altitude Azimuth Distance (km) Brightness Sun altitude
Exits shadow 06:58:05 - 316° (NW) 3,183 4.6 -6.4°
Reaches altitude 10° 06:59:11 10° 317° (NW) 2,793 4.3 -6.2°
Maximum altitude 07:06:01 89° 49° (NE) 1,212 3.1 -5.2°
Drops below altitude 10° 07:14:36 10° 139° (SE) 3,473 6.7 -4.0°
Sets 07:17:45 0° 140° (SE) 4,528 7.5 -3.5°
